PST,Max TemperatureF,Mean TemperatureF,Min TemperatureF,Max Dew PointF,MeanDew PointF,Min DewpointF,Max Humidity, Mean Humidity, Min Humidity, Max Sea Level PressureIn, Mean Sea Level PressureIn, Min Sea Level PressureIn, Max VisibilityMiles, Mean VisibilityMiles, Min VisibilityMiles, Max Wind SpeedMPH, Mean Wind SpeedMPH, Max Gust SpeedMPH,PrecipitationIn, CloudCover, Events, WindDirDegrees
2012-11-1,51,46,42,46,43,37,100,93,74,30.12,30.06,29.96,10,6,1,16,7,26,0.84,7,Rain,155
2012-11-2,55,50,45,44,37,31,90,65,47,30.06,30.03,30.01,10,10,10,8,1,,0.00,0,,141
2012-11-3,61,54,48,45,34,11,67,48,14,30.14,30.09,30.03,10,10,10,8,3,,0.00,0,,1
2012-11-4,72,63,55,41,31,25,47,32,23,30.18,30.15,30.11,10,10,8,12,5,23,0.00,0,,36
2012-11-5,72,64,57,47,33,25,50,32,22,30.18,30.11,30.04,10,10,5,8,5,17,0.00,0,,38
2012-11-6,68,62,57,35,28,22,38,26,21,30.11,30.05,30.01,10,10,10,6,3,,0.00,0,,159
2012-11-7,61,56,50,35,27,20,52,33,21,30.09,29.94,29.78,10,10,10,13,6,21,0.00,0,,160
2012-11-8,48,38,27,33,28,10,100,88,26,29.87,29.79,29.73,10,4,0,22,14,30,0.47,8,Fog-Rain-Snow,185
2012-11-9,28,27,26,27,26,24,100,96,92,29.95,29.83,29.78,10,3,0,15,8,21,0.39,8,Fog-Snow,182
2012-11-10,30,28,26,28,25,17,100,92,69,30.26,29.98,29.84,10,4,0,10,4,17,0.36,7,Fog-Snow,245
2012-11-11,39,32,25,27,18,10,78,56,42,30.38,30.33,30.27,10,10,10,7,3,,0.00,1,,31
2012-11-12,46,38,30,28,21,10,72,47,24,30.37,30.31,30.26,10,10,10,7,3,,0.00,3,,142
2012-11-13,53,48,43,40,33,12,74,58,28,30.26,30.18,30.12,10,10,10,6,2,,0.00,2,,115
2012-11-14,55,50,46,39,31,10,68,49,20,30.12,30.09,30.04,10,10,10,6,2,,0.00,0,,95
2012-11-15,55,50,44,30,16,5,52,27,15,30.01,29.99,29.94,10,10,10,10,4,,0.00,1,,148
2012-11-16,45,41,37,42,38,20,100,90,38,30.08,30.00,29.92,10,4,0,20,7,28,0.35,8,Fog-Rain,153
2012-11-17,44,40,37,45,41,37,100,98,93,29.98,29.93,29.84,9,2,0,24,16,37,2.42,8,Fog-Rain,169
2012-11-18,39,36,33,39,35,30,100,98,85,30.20,30.07,29.93,10,2,0,22,12,33,1.00,8,Fog-Rain-Snow,163
2012-11-19,43,38,33,41,38,30,100,93,76,30.27,30.23,30.17,10,5,0,16,8,26,0.05,8,Fog-Rain-Snow,159
2012-11-20,43,41,39,43,40,35,100,96,81,30.21,30.13,30.04,10,4,0,24,11,33,0.55,8,Fog-Rain,163
2012-11-21,42,40,37,43,40,34,100,98,79,30.23,30.14,30.02,10,3,0,20,10,29,1.71,6,Fog-Rain,182
2012-11-22,59,50,42,41,20,-7,70,32,9,30.21,30.17,30.14,10,10,7,8,3,,0.00,0,,46
2012-11-23,61,56,52,28,20,13,31,24,19,30.22,30.18,30.15,10,10,10,7,3,,0.00,0,,133
2012-11-24,59,54,50,37,22,10,55,31,17,30.15,30.07,29.98,10,10,10,7,2,,0.00,0,,150
2012-11-25,55,52,48,32,20,10,50,30,20,29.98,29.95,29.90,10,10,10,5,2,,0.00,0,,89
2012-11-26,55,50,46,30,22,15,46,33,24,30.05,30.00,29.92,10,10,10,12,5,16,0.00,0,,142
2012-11-27,53,50,46,30,24,15,48,37,25,30.09,30.04,29.99,10,10,10,12,7,23,0.00,0,,145
2012-11-28,50,44,37,43,38,25,100,92,38,30.09,30.00,29.86,10,3,0,31,14,52,1.32,8,Fog-Rain,170
2012-11-29,44,42,39,43,41,37,100,97,80,30.10,30.01,29.84,10,2,0,30,17,53,1.20,8,Fog-Rain,168
2012-11-30,44,42,41,45,42,39,100,99,93,30.00,29.88,29.74,2,1,0,41,22,66,5.52,8,Fog-Rain,190